Regional Weather Roundup
Issued by NWS

Home | Current Version | Previous Version | Graphics & Text | Print | Product List | Glossary On
Versions: 1 2 3 4 5 6 7 8 9 10 11 12 13 14 15 16 17 18 19 20 21 22 23 24 25 26 27 28 29 30 31 32 33 34 35 36 37 38 39 40 41 42 43 44 45 46 47 48 49 50
583
ASUS44 KMEG 221010
RWRTN
TENNESSEE HOURLY STATE WEATHER ROUNDUP
NATIONAL WEATHER SERVICE MEMPHIS TN
400 AM CST WED NOV 22 2017

TNZ002-004-019-021-049-052-054-088>092-221100-
WEST TENNESSEE

CITY           SKY/WX    TMP DP  RH WIND       PRES   REMARKS
MEMPHIS INTL   CLEAR     41  28  60 N12       30.23R
NWS MEMPHIS      N/A     41 N/A N/A MISG        N/A
JACKSON        CLEAR     37  28  70 N8        30.23R WCI  31
DYERSBURG      CLEAR     33  24  69 N10       30.29R WCI  25
SOMERVILLE     CLOUDY    39  27  60 N7G14     30.20S WCI  34
COVINGTON      PTCLDY    36  27  69 N13G18    30.27R WCI  27
UNION CITY     CLEAR     32  25  74 N15G21    30.28R WCI  22
BOLIVAR        CLOUDY    39  27  60 NW6       30.20R WCI  35
PARIS          CLEAR     32  25  74 N6        30.25R WCI  26
HUNTINGDON     CLEAR     36  25  64 N5        30.24R WCI  32
LEXINGTON      CLOUDY    37  27  65 N10       30.20S WCI  30
SELMER         PTCLDY    39  27  60 N9        30.18R WCI  33
SAVANNAH       CLOUDY    36  34  93 N7        30.17S WCI  30
$$

TNZ008-025-027-028-033-062-065-066-221100-
NORTH MIDDLE TENNESSEE

CITY           SKY/WX    TMP DP  RH WIND       PRES   REMARKS
NASHVILLE      CLEAR     38  28  67 N12       30.20R WCI  30
PORTLAND       CLEAR     34  30  86 N9        30.19R WCI  26
CLARKSVILLE    CLEAR     32  23  69 N13       30.24R WCI  22
SMYRNA         CLEAR     38  30  73 N15       30.20R WCI  29
COOKEVILLE     CLEAR     39  34  81 VRB5      30.13R
GALLATIN       CLOUDY    37  28  70 N13       30.21R WCI  29
CROSSVILLE     CLEAR     40  31  70 N8        30.10R WCI  34
$$

TNZ061-075-076-078-094-096-097-221100-
SOUTH MIDDLE TENNESSEE

CITY           SKY/WX    TMP DP  RH WIND       PRES   REMARKS
FAYETTEVILLE   CLEAR     41  36  81 N10       30.11S
TULLAHOMA      CLEAR     39  34  81 N10       30.11S WCI  32
WINCHESTER     CLEAR     36  34  93 W3        30.11F
MCMINNVILLE    CLEAR     39  34  81 N6        30.13R WCI  35
COLUMBIA       PTCLDY    39  32  75 N6        30.16S WCI  35
SHELBYVILLE    CLEAR     37  34  87 N8        30.15R WCI  31
$$

TNZ017-018-042-046-047-221100-
NORTHEAST TENNESSEE

CITY           SKY/WX    TMP DP  RH WIND       PRES   REMARKS
TRI CITIES     MOCLDY    48  40  73 W5        30.05S
ELIZABETHTON   CLOUDY    45  43  93 CALM      30.05S
$$

TNZ012-013-036-069-073-074-221100-
CENTRAL EAST TENNESSEE

CITY           SKY/WX    TMP DP  RH WIND       PRES   REMARKS
KNOXVILLE      CLEAR     44  44 100 CALM      30.08R
OAK RIDGE      CLEAR     38  38 100 CALM      30.09S
DOWNTOWN KNOXV FOG       41  41 100 CALM      30.09S VSB 0
GATLINBURG     MOCLDY    50  34  53 CALM      30.08R
MORRISTOWN     PTCLDY    46  32  57 CALM      30.07S
JACKSBORO      CLEAR     46  32  57 CALM      30.13R
$$

TNZ083-085-099-221100-
SOUTHEAST TENNESSEE

CITY           SKY/WX    TMP DP  RH WIND       PRES   REMARKS
CHATTANOOGA    CLEAR     39  36  89 CALM      30.09R
DAYTON         MOSUNNY   46  37  71 E3        30.08R
$$

SKY/WX REPORTED AS FAIR MEANS FEW OR NO CLOUDS BELOW
12 THOUSAND FEET.





USA.gov is the U.S. government's official web portal to all federal, state and local government web resources and services.